N576LM LFPB-EGLL

Flight info

Callsign N576LM
Flight time 0h 54m
Altitude 20000
Route OPALE UT421 KESAX UT426 DIMAL UT10 ALESO
Aircraft B350/L-SBGRW/S

Departure

Time 2026-05-06 09:51
Airport Paris-Le Bourget International Airport (LFPB)

Arrival

Time 2026-05-06 10:46
Airport London Heathrow Airport (EGLL)
Time Latitude Longitude Altitude Speed Heading
2026-05-06 09:34 48.96119 2.44048 162 ft 0 kts 202°
2026-05-06 09:46 48.96115 2.44046 166 ft 4 kts 204°
2026-05-06 09:46 48.96126 2.44012 166 ft 9 kts 317°
2026-05-06 09:47 48.96106 2.43925 165 ft 14 kts 206°
2026-05-06 09:47 48.96005 2.43852 164 ft 19 kts 204°
2026-05-06 09:47 48.95876 2.43764 163 ft 22 kts 203°
2026-05-06 09:47 48.95808 2.43626 161 ft 16 kts 295°
2026-05-06 09:48 48.95853 2.43484 161 ft 14 kts 294°
2026-05-06 09:48 48.95879 2.43396 160 ft 14 kts 294°
2026-05-06 09:48 48.95927 2.43239 161 ft 18 kts 295°
2026-05-06 09:48 48.95998 2.43053 161 ft 22 kts 311°
2026-05-06 09:49 48.96103 2.42859 160 ft 24 kts 310°
2026-05-06 09:49 48.96211 2.42648 159 ft 27 kts 309°
2026-05-06 09:49 48.96271 2.42435 157 ft 19 kts 263°
2026-05-06 09:49 48.96263 2.42228 155 ft 16 kts 266°
2026-05-06 09:50 48.96262 2.42207 155 ft 0 kts 267°
2026-05-06 09:50 48.96262 2.42184 155 ft 11 kts 271°
2026-05-06 09:50 48.96328 2.42053 154 ft 19 kts 360°
2026-05-06 09:50 48.96425 2.42179 154 ft 19 kts 68°
2026-05-06 09:51 48.96485 2.42392 159 ft 46 kts 67°
2026-05-06 09:51 48.96707 2.43228 175 ft 115 kts 66°
2026-05-06 09:51 48.97014 2.44433 571 ft 125 kts 64°
2026-05-06 09:51 48.97077 2.45847 1025 ft 142 kts 88°
2026-05-06 09:52 48.96972 2.47404 1634 ft 148 kts 90°
2026-05-06 09:52 48.96845 2.49015 2151 ft 158 kts 91°
2026-05-06 09:52 48.96722 2.50700 2669 ft 163 kts 88°
2026-05-06 09:52 48.96622 2.52473 3198 ft 168 kts 88°
2026-05-06 09:53 48.96541 2.53913 3611 ft 171 kts 89°
2026-05-06 09:53 48.96437 2.55740 4128 ft 174 kts 89°
2026-05-06 09:53 48.96330 2.57613 4653 ft 176 kts 89°
2026-05-06 09:53 48.96240 2.59477 5167 ft 177 kts 84°
2026-05-06 09:54 48.96360 2.61334 5685 ft 177 kts 77°
2026-05-06 09:54 48.96550 2.63221 6213 ft 180 kts 75°
2026-05-06 09:54 48.96776 2.65108 6711 ft 183 kts 74°
2026-05-06 09:54 48.97108 2.67005 7222 ft 181 kts 57°
2026-05-06 09:55 48.97892 2.68422 7719 ft 178 kts 41°
2026-05-06 09:55 48.98753 2.69682 8217 ft 181 kts 41°
2026-05-06 09:55 48.99744 2.70915 8746 ft 181 kts 26°
2026-05-06 09:55 49.00898 2.71745 9299 ft 183 kts 22°
2026-05-06 09:56 49.02055 2.72536 9762 ft 188 kts 21°
2026-05-06 09:56 49.03295 2.73206 10237 ft 187 kts
2026-05-06 09:56 49.04154 2.73015 10590 ft 183 kts 336°
2026-05-06 09:56 49.05250 2.72023 11073 ft 183 kts 325°
2026-05-06 09:57 49.06330 2.70998 11579 ft 184 kts 327°
2026-05-06 09:57 49.07439 2.69940 12158 ft 185 kts 326°
2026-05-06 09:57 49.08531 2.68880 12747 ft 185 kts 326°
2026-05-06 09:57 49.09627 2.67815 13326 ft 187 kts 327°
2026-05-06 09:58 49.10746 2.66731 13909 ft 188 kts 327°
2026-05-06 09:58 49.11855 2.65656 14389 ft 191 kts 327°
2026-05-06 09:58 49.13000 2.64549 14892 ft 193 kts 327°
2026-05-06 09:58 49.14181 2.63404 15412 ft 196 kts 327°
2026-05-06 09:59 49.15353 2.62266 15909 ft 199 kts 327°
2026-05-06 09:59 49.16528 2.61125 16410 ft 202 kts 327°
2026-05-06 09:59 49.17735 2.59952 16907 ft 204 kts 327°
2026-05-06 09:59 49.18961 2.58762 17398 ft 207 kts 327°
2026-05-06 10:00 49.20183 2.57573 17882 ft 209 kts 327°
2026-05-06 10:00 49.21420 2.56368 18335 ft 212 kts 327°
2026-05-06 10:00 49.22666 2.55156 18761 ft 213 kts 327°
2026-05-06 10:00 49.23940 2.53914 19228 ft 214 kts 328°
2026-05-06 10:01 49.25214 2.52673 19681 ft 216 kts 328°
2026-05-06 10:01 49.26485 2.51433 20125 ft 217 kts 329°
2026-05-06 10:01 49.27768 2.50180 20495 ft 223 kts 330°
2026-05-06 10:01 49.29070 2.48907 20978 ft 220 kts 329°
2026-05-06 10:02 49.30367 2.47641 21409 ft 222 kts 330°
2026-05-06 10:02 49.31674 2.46368 21828 ft 224 kts 330°
2026-05-06 10:02 49.33028 2.45041 22258 ft 225 kts 330°
2026-05-06 10:02 49.34354 2.43741 22653 ft 227 kts 330°
2026-05-06 10:03 49.35688 2.42435 23074 ft 228 kts 330°
2026-05-06 10:03 49.37030 2.41119 23481 ft 230 kts 330°
2026-05-06 10:03 49.38392 2.39783 23823 ft 231 kts 330°
2026-05-06 10:03 49.39794 2.38408 23902 ft 245 kts 330°
2026-05-06 10:04 49.41303 2.36930 23912 ft 259 kts 330°
2026-05-06 10:04 49.42846 2.35414 23919 ft 270 kts 329°
2026-05-06 10:04 49.44476 2.33807 23916 ft 279 kts 329°
2026-05-06 10:04 49.46143 2.32162 23918 ft 285 kts 329°
2026-05-06 10:05 49.47278 2.31045 23922 ft 288 kts 329°
2026-05-06 10:05 49.49006 2.29344 23923 ft 293 kts 329°
2026-05-06 10:05 49.50603 2.27767 23918 ft 296 kts 329°
2026-05-06 10:05 49.52344 2.26047 23919 ft 299 kts 329°
2026-05-06 10:06 49.54126 2.24285 23919 ft 301 kts 328°
2026-05-06 10:06 49.55907 2.22521 23923 ft 303 kts 328°
2026-05-06 10:06 49.57666 2.20780 23917 ft 304 kts 328°
2026-05-06 10:06 49.59454 2.19009 23920 ft 305 kts 328°
2026-05-06 10:07 49.61243 2.17234 23920 ft 306 kts 328°
2026-05-06 10:07 49.63018 2.15470 23917 ft 307 kts 328°
2026-05-06 10:07 49.64845 2.13657 23916 ft 308 kts 328°
2026-05-06 10:07 49.66644 2.11867 23915 ft 308 kts 328°
2026-05-06 10:08 49.68445 2.10073 23920 ft 309 kts 328°
2026-05-06 10:08 49.70228 2.08296 23919 ft 309 kts 328°
2026-05-06 10:08 49.72085 2.06444 23917 ft 310 kts 328°
2026-05-06 10:08 49.73893 2.04640 23917 ft 310 kts 327°
2026-05-06 10:09 49.75734 2.02800 23917 ft 310 kts 327°
2026-05-06 10:09 49.77540 2.00993 23918 ft 310 kts 327°
2026-05-06 10:09 49.79358 1.99174 23917 ft 310 kts 327°
2026-05-06 10:09 49.81145 1.97384 23920 ft 311 kts 327°
2026-05-06 10:10 49.83058 1.95464 23920 ft 311 kts 327°
2026-05-06 10:10 49.84922 1.93593 23922 ft 311 kts 327°
2026-05-06 10:10 49.86767 1.91740 23921 ft 311 kts 327°
2026-05-06 10:10 49.88383 1.90116 23923 ft 311 kts 327°
2026-05-06 10:11 49.90244 1.88202 23921 ft 310 kts 323°
2026-05-06 10:11 49.91965 1.86104 23924 ft 310 kts 321°
2026-05-06 10:11 49.93667 1.83963 23920 ft 310 kts 321°
2026-05-06 10:11 49.95381 1.81852 23925 ft 310 kts 321°
2026-05-06 10:12 49.97102 1.79747 23925 ft 310 kts 321°
2026-05-06 10:12 49.98794 1.77663 23930 ft 310 kts 321°
2026-05-06 10:12 49.99958 1.76222 23927 ft 311 kts 321°
2026-05-06 10:12 50.01668 1.74107 23926 ft 311 kts 321°
2026-05-06 10:13 50.03405 1.71959 23927 ft 311 kts 321°
2026-05-06 10:13 50.05127 1.69832 23929 ft 311 kts 321°
2026-05-06 10:13 50.06879 1.67704 23927 ft 311 kts 325°
2026-05-06 10:13 50.08816 1.66068 23938 ft 311 kts 335°
2026-05-06 10:14 50.10821 1.64696 23942 ft 312 kts 336°
2026-05-06 10:14 50.12788 1.63311 23938 ft 312 kts 335°
2026-05-06 10:14 50.14755 1.61860 23939 ft 312 kts 334°
2026-05-06 10:14 50.16746 1.60401 23937 ft 312 kts 335°
2026-05-06 10:15 50.18737 1.58963 23942 ft 313 kts 335°
2026-05-06 10:15 50.20765 1.57495 23940 ft 313 kts 335°
2026-05-06 10:15 50.22740 1.56055 23936 ft 313 kts 335°
2026-05-06 10:15 50.24764 1.54581 23941 ft 313 kts 335°
2026-05-06 10:16 50.26738 1.53142 23942 ft 313 kts 335°
2026-05-06 10:16 50.28762 1.51666 23947 ft 313 kts 335°
2026-05-06 10:16 50.30761 1.50206 23943 ft 313 kts 335°
2026-05-06 10:16 50.32783 1.48729 23683 ft 322 kts 335°
2026-05-06 10:17 50.34872 1.47202 23267 ft 332 kts 335°
2026-05-06 10:17 50.37014 1.45636 22830 ft 337 kts 335°
2026-05-06 10:17 50.39161 1.44061 22394 ft 336 kts 335°
2026-05-06 10:17 50.40625 1.42986 22105 ft 336 kts 335°
2026-05-06 10:18 50.42795 1.41393 21660 ft 335 kts 335°
2026-05-06 10:18 50.44920 1.39831 21212 ft 333 kts 335°
2026-05-06 10:18 50.47020 1.38288 20776 ft 332 kts 335°
2026-05-06 10:18 50.49087 1.36569 20347 ft 332 kts 327°
2026-05-06 10:19 50.50863 1.34206 19923 ft 332 kts 314°
2026-05-06 10:19 50.52380 1.31437 19502 ft 331 kts 310°
2026-05-06 10:19 50.53888 1.28683 19092 ft 330 kts 314°
2026-05-06 10:19 50.55484 1.26058 18687 ft 328 kts 316°
2026-05-06 10:20 50.57125 1.23415 18279 ft 327 kts 316°
2026-05-06 10:20 50.58802 1.20901 17953 ft 322 kts 318°
2026-05-06 10:20 50.60428 1.18461 17950 ft 310 kts 317°
2026-05-06 10:20 50.61965 1.16037 17950 ft 301 kts 316°
2026-05-06 10:21 50.63501 1.13637 17950 ft 295 kts 317°
2026-05-06 10:21 50.64972 1.11378 17946 ft 291 kts 317°
2026-05-06 10:21 50.66050 1.09716 17953 ft 288 kts 316°
2026-05-06 10:21 50.67482 1.07490 17952 ft 285 kts 316°
2026-05-06 10:22 50.68887 1.05304 17952 ft 283 kts 316°
2026-05-06 10:22 50.70287 1.03128 17957 ft 282 kts 316°
2026-05-06 10:22 50.71696 1.00937 17956 ft 281 kts 316°
2026-05-06 10:22 50.73125 0.98713 17951 ft 281 kts 316°
2026-05-06 10:23 50.74510 0.96554 17957 ft 280 kts 316°
2026-05-06 10:23 50.75993 0.94240 17958 ft 280 kts 316°
2026-05-06 10:23 50.77294 0.92211 17957 ft 279 kts 316°
2026-05-06 10:23 50.78522 0.90291 17956 ft 279 kts 316°
2026-05-06 10:24 50.79957 0.88046 17958 ft 279 kts 316°
2026-05-06 10:24 50.81426 0.85749 17961 ft 279 kts 316°
2026-05-06 10:24 50.82790 0.83611 17955 ft 279 kts 316°
2026-05-06 10:24 50.83978 0.81749 17956 ft 279 kts 315°
2026-05-06 10:25 50.85374 0.79558 17956 ft 279 kts 315°
2026-05-06 10:25 50.86777 0.77354 17769 ft 285 kts 315°
2026-05-06 10:25 50.88194 0.75131 17358 ft 289 kts 315°
2026-05-06 10:25 50.89641 0.72853 16970 ft 296 kts 315°
2026-05-06 10:26 50.91128 0.70511 16579 ft 300 kts 315°
2026-05-06 10:26 50.92340 0.68601 16252 ft 303 kts 315°
2026-05-06 10:26 50.93712 0.66439 15918 ft 305 kts 315°
2026-05-06 10:26 50.95229 0.64043 15540 ft 306 kts 315°
2026-05-06 10:27 50.96738 0.61657 15168 ft 307 kts 315°
2026-05-06 10:27 50.98251 0.59265 14808 ft 307 kts 315°
2026-05-06 10:27 50.99742 0.56900 14510 ft 308 kts 315°
2026-05-06 10:27 51.01221 0.54555 14169 ft 307 kts 315°
2026-05-06 10:28 51.02709 0.52064 13810 ft 307 kts 308°
2026-05-06 10:28 51.03938 0.48744 13367 ft 306 kts 292°
2026-05-06 10:28 51.04598 0.45614 12980 ft 306 kts 288°
2026-05-06 10:28 51.05288 0.42504 12603 ft 305 kts 293°
2026-05-06 10:29 51.06198 0.39488 12223 ft 303 kts 298°
2026-05-06 10:29 51.07167 0.36477 12070 ft 295 kts 296°
2026-05-06 10:29 51.08014 0.33514 11851 ft 292 kts 295°
2026-05-06 10:29 51.08728 0.30969 11519 ft 294 kts 295°
2026-05-06 10:30 51.09693 0.27705 11104 ft 295 kts 296°
2026-05-06 10:30 51.10524 0.24889 10750 ft 296 kts 296°
2026-05-06 10:30 51.11143 0.22755 10485 ft 296 kts 296°
2026-05-06 10:30 51.12069 0.19552 10099 ft 295 kts 296°
2026-05-06 10:31 51.13002 0.16339 10049 ft 284 kts 296°
2026-05-06 10:31 51.13751 0.13760 10043 ft 276 kts 296°
2026-05-06 10:31 51.14548 0.11013 9985 ft 271 kts 296°
2026-05-06 10:31 51.15370 0.08165 9981 ft 266 kts 296°
2026-05-06 10:32 51.16223 0.05216 9956 ft 264 kts 296°
2026-05-06 10:32 51.16925 0.02804 9600 ft 272 kts 296°
2026-05-06 10:32 51.17744 -0.00026 9190 ft 277 kts 296°
2026-05-06 10:32 51.18597 -0.03010 8771 ft 276 kts 296°
2026-05-06 10:33 51.19390 -0.05746 8389 ft 275 kts 297°
2026-05-06 10:33 51.20198 -0.08544 8023 ft 273 kts 296°
2026-05-06 10:33 51.20743 -0.10452 7999 ft 264 kts 296°
2026-05-06 10:33 51.21493 -0.13095 7989 ft 253 kts 297°
2026-05-06 10:34 51.22227 -0.15646 7993 ft 246 kts 297°
2026-05-06 10:34 51.22933 -0.18108 7985 ft 241 kts 296°
2026-05-06 10:34 51.23634 -0.20554 7984 ft 237 kts 297°
2026-05-06 10:34 51.24345 -0.23040 7979 ft 238 kts 296°
2026-05-06 10:35 51.24999 -0.25350 7986 ft 238 kts 297°
2026-05-06 10:35 51.25695 -0.27796 7983 ft 240 kts 297°
2026-05-06 10:35 51.26387 -0.30194 7982 ft 241 kts 296°
2026-05-06 10:35 51.27091 -0.32665 7987 ft 241 kts 296°
2026-05-06 10:36 51.27801 -0.35187 7980 ft 242 kts 296°
2026-05-06 10:36 51.28498 -0.37680 7910 ft 246 kts 296°
2026-05-06 10:36 51.29203 -0.40232 7500 ft 250 kts 296°
2026-05-06 10:36 51.29903 -0.42779 7100 ft 248 kts 296°
2026-05-06 10:37 51.30588 -0.45298 6704 ft 241 kts 296°
2026-05-06 10:37 51.31258 -0.47766 6299 ft 236 kts 296°
2026-05-06 10:37 51.31899 -0.50158 5874 ft 233 kts 296°
2026-05-06 10:37 51.32562 -0.52667 5436 ft 230 kts 296°
2026-05-06 10:38 51.33163 -0.54977 5036 ft 228 kts 296°
2026-05-06 10:38 51.33716 -0.57115 4656 ft 227 kts 296°
2026-05-06 10:38 51.34301 -0.59391 4246 ft 225 kts 296°
2026-05-06 10:38 51.34910 -0.61772 3822 ft 224 kts 295°
2026-05-06 10:39 51.35506 -0.64100 3403 ft 223 kts 296°
2026-05-06 10:39 51.36092 -0.66391 3021 ft 221 kts 295°
2026-05-06 10:39 51.36653 -0.68611 2992 ft 206 kts 295°
2026-05-06 10:39 51.37198 -0.70785 2983 ft 210 kts 295°
2026-05-06 10:40 51.37792 -0.72920 2985 ft 208 kts 307°
2026-05-06 10:40 51.38457 -0.73970 2997 ft 203 kts 332°
2026-05-06 10:40 51.39655 -0.74520 2999 ft 200 kts 357°
2026-05-06 10:40 51.41127 -0.74549 2926 ft 204 kts
2026-05-06 10:41 51.42485 -0.74531 2770 ft 195 kts
2026-05-06 10:41 51.44056 -0.74487 2586 ft 187 kts
2026-05-06 10:41 51.45117 -0.74455 2495 ft 181 kts
2026-05-06 10:41 51.46247 -0.73752 2505 ft 179 kts 42°
2026-05-06 10:42 51.46791 -0.71744 2496 ft 186 kts 87°
2026-05-06 10:42 51.46494 -0.69630 2496 ft 183 kts 96°
2026-05-06 10:42 51.46435 -0.67726 2487 ft 179 kts 86°
2026-05-06 10:42 51.46422 -0.65635 2286 ft 181 kts 87°
2026-05-06 10:43 51.46412 -0.63570 2032 ft 182 kts 86°
2026-05-06 10:43 51.46430 -0.61475 1778 ft 181 kts 86°
2026-05-06 10:43 51.46436 -0.59495 1541 ft 172 kts 87°
2026-05-06 10:44 51.46456 -0.55933 1077 ft 135 kts 85°
2026-05-06 10:44 51.46449 -0.54543 897 ft 113 kts 86°
2026-05-06 10:44 51.46433 -0.53645 783 ft 115 kts 85°
2026-05-06 10:44 51.46447 -0.52206 543 ft 125 kts 86°
2026-05-06 10:45 51.46450 -0.50971 419 ft 119 kts 83°
2026-05-06 10:45 51.46470 -0.49585 293 ft 119 kts 83°
2026-05-06 10:45 51.46479 -0.48408 126 ft 116 kts 85°
2026-05-06 10:45 51.46488 -0.47111 83 ft 83 kts 91°
2026-05-06 10:46 51.46500 -0.46643 84 ft 22 kts 96°
2026-05-06 10:46 51.46490 -0.46145 83 ft 57 kts 90°
2026-05-06 10:46 51.46469 -0.45656 83 ft 42 kts 106°
2026-05-06 10:46 51.46378 -0.45410 83 ft 18 kts 157°
2026-05-06 10:47 51.46366 -0.45404 86 ft 0 kts 170°
2026-05-06 10:48 51.46311 -0.45480 84 ft 22 kts 270°
2026-05-06 10:49 51.46285 -0.45593 88 ft 9 kts 239°
2026-05-06 10:49 51.46254 -0.45672 85 ft 0 kts 237°